Location: Sternwarte_Laufen
(47.9344°N, 12.9346°E)
Time: 19:11:04
(UTC+01:00)

ISS - Pass Details

Date: 27 May 2017
Orbit: 401 x 407 km, 51.6° (Epoch: 25 November)

Event Time Altitude Azimuth Distance (km) Brightness Sun altitude
Rises 00:52:23 0° 286° (WNW) 2,361 0.3 -20.7°
Reaches altitude 10° 00:54:32 10° 293° (WNW) 1,494 -0.7 -20.7°
Maximum altitude 00:57:47 45° 7° (N) 579 -2.6 -20.8°
Drops below altitude 10° 01:00:59 10° 82° (E) 1,481 -0.9 -20.8°
Sets 01:03:07 0° 89° (E) 2,337 0.0 -20.8°
